User: anonymous   Login
Location: Unspecified
(0.0000°N, 0.0000°E)
Time: 19:48:03
(UTC+00:00)
Language:

Sedsat-1 - Orbit

View from above orbital plane
View from above orbital plane
View from above satellite
View from above satellite

Ground track
Ground track

The orbit data is extracted from the following two-line orbital elements,

1 25509U 98061B   19341.12241042  .00000075  00000-0  37403-5 0  9993
2 25509  31.4338 342.8543 0346578   5.0725 355.3285 14.30395974103512
Epoch (UTC): 07 December 2019 02:56:16
Eccentricity: 0.0346578
inclination: 31.4338°
perigee height: 542 km
apogee height: 1039 km
right ascension of ascending node: 342.8543°
argument of perigee: 5.0725°
revolutions per day: 14.30395974
mean anomaly at epoch: 355.3285°
orbit number at epoch: 10351

The dashed part of the orbit path shows where the satellite is in the earth's shadow,  

DLR